Dryden, TX

1:53 PM CST on February 26, 2017 (GMT -0600)
Dryden

Weather History for K6R6 - May, 2014

Change the Weather History Date:

Saturday, May 10, 2014

  Actual Average (KFST) Record (KFST)
Temperature  
Mean Temperature 82 °F -  
Max Temperature 100 °F 88 °F 102 °F (2000)
Min Temperature 64 °F 59 °F 48 °F (1997)
Cooling Degree Days 17    
Growing Degree Days 32 (Base 50)    
Moisture  
Dew Point 55 °F    
Average Humidity 46    
Maximum Humidity 81    
Minimum Humidity 13    
Precipitation  
Precipitation 0.00 in - - ()
Sea Level Pressure  
Sea Level Pressure 29.70 in    
Wind  
Wind Speed 9 mph (East)    
Max Wind Speed 23 mph    
Max Gust Speed 37 mph    
Averages and records for this station are not official NWS values.
T = Trace of Precipitation, MM = Missing Value Source: NWS Daily Summary

Daily Weather History Graph

Daily Weather History Graph

Search for Another Location

Airport or City:

Trip Planner

Search our weather history database for the weather conditions in past years. The results will help you decide how hot, cold, wet, or windy it might be!

Date:

Astronomy

May. 10, 2014 Rise Set
Actual Time 6:58 AM CDT 8:32 PM CDT
Civil Twilight 6:32 AM CDT 8:58 PM CDT
Nautical Twilight 6:01 AM CDT 9:29 PM CDT
Astronomical Twilight 5:29 AM CDT 10:01 PM CDT
Moon 4:47 PM CDT (5/10) 4:13 AM CDT (5/10)
Length of Visible Light 14h 25m
Length of Day
13h 33m
Waxing Gibbous, 82% of the Moon is Illuminated
May 10
Waxing Gibbous
May 14
Full
May 21
Last Quarter
May 28
New
Jun 5
First Quarter

Hourly Weather History & Observations

Time (CDT) Temp. Heat Index Dew Point Humidity Pressure Visibility Wind Dir Wind Speed Gust Speed Precip Events Conditions
12:53 AM 75.0 °F - 59.0 °F 57% 29.77 in - East 13.8 mph 23.0 mph N/A   Unknown
1:53 AM 73.0 °F - 60.1 °F 64% 29.75 in - East 5.8 mph - N/A   Unknown
2:53 AM 70.0 °F - 60.1 °F 71% 29.75 in - NE 4.6 mph - N/A   Unknown
3:53 AM 66.9 °F - 59.0 °F 76% 29.75 in - North 5.8 mph - N/A   Unknown
4:53 AM 64.9 °F - 57.9 °F 78% 29.74 in - NNE 5.8 mph - N/A   Unknown
5:53 AM 64.0 °F - 57.9 °F 80% 29.76 in - NNE 6.9 mph - N/A   Unknown
6:53 AM 66.0 °F - 60.1 °F 81% 29.77 in - NE 4.6 mph - N/A   Unknown
7:53 AM 68.0 °F - 62.1 °F 81% 29.79 in - Calm Calm - N/A   Unknown
8:53 AM 70.0 °F - 62.1 °F 76% 29.82 in - East 4.6 mph - N/A   Unknown
9:53 AM 73.0 °F - 62.1 °F 68% 29.82 in - ENE 3.5 mph - N/A   Unknown
10:53 AM 77.0 °F - 61.0 °F 58% 29.81 in - Calm Calm - N/A   Unknown
11:53 AM 84.0 °F 84.0 °F 60.1 °F 44% 29.78 in - SE 6.9 mph - N/A   Unknown
12:53 PM 89.1 °F 87.1 °F 55.0 °F 31% 29.74 in - ESE 8.1 mph - N/A   Unknown
1:53 PM 95.0 °F - 51.1 °F 22% 29.71 in - SE 8.1 mph - N/A   Unknown
2:53 PM 97.0 °F - 44.1 °F 16% 29.68 in - SE 11.5 mph - N/A   Unknown
3:53 PM 99.0 °F - 39.0 °F 13% 29.64 in - South 8.1 mph 18.4 mph N/A   Unknown
4:53 PM 100.0 °F - 48.0 °F 17% 29.60 in - ESE 12.7 mph 19.6 mph N/A   Unknown
5:53 PM 100.0 °F - 50.0 °F 18% 29.58 in - East 12.7 mph 25.3 mph N/A   Unknown
6:53 PM 99.0 °F - 50.0 °F 19% 29.57 in - ESE 15.0 mph 28.8 mph N/A   Unknown
7:53 PM 95.0 °F - 51.1 °F 22% 29.57 in - East 19.6 mph 28.8 mph N/A   Unknown
8:53 PM 91.9 °F - 52.0 °F 26% 29.58 in - East 17.3 mph 29.9 mph N/A   Unknown
9:53 PM 90.0 °F - 52.0 °F 27% 29.60 in - ESE 17.3 mph 29.9 mph N/A   Unknown
10:53 PM 88.0 °F 85.7 °F 53.1 °F 30% 29.60 in - ESE 19.6 mph 31.1 mph N/A   Unknown
11:53 PM 86.0 °F 84.9 °F 57.0 °F 37% 29.60 in - ESE 23.0 mph 36.8 mph N/A   Unknown